Year,Month,Day,Hour,Minute,Value (Times are PST for temperature in C)
2005,07,26,00,00,13.90
2005,07,26,00,01,13.80
2005,07,26,00,02,13.80
2005,07,26,00,03,13.70
2005,07,26,00,04,13.70
2005,07,26,00,05,13.70
2005,07,26,00,06,13.70
2005,07,26,00,07,13.60
2005,07,26,00,08,13.60
2005,07,26,00,09,13.60
2005,07,26,00,10,13.50
2005,07,26,00,11,13.50
2005,07,26,00,12,13.40
2005,07,26,00,13,13.40
2005,07,26,00,14,13.40
2005,07,26,00,15,13.30
2005,07,26,00,16,13.30
2005,07,26,00,17,13.30
2005,07,26,00,18,13.30
2005,07,26,00,19,13.30
2005,07,26,00,20,13.20
2005,07,26,00,21,13.20
2005,07,26,00,22,13.20
2005,07,26,00,23,13.20
2005,07,26,00,24,13.10
2005,07,26,00,25,13.10
2005,07,26,00,26,13.10
2005,07,26,00,27,13.10
2005,07,26,00,28,13.00
2005,07,26,00,29,13.00
2005,07,26,00,30,13.00
2005,07,26,00,31,12.90
2005,07,26,00,32,12.90
2005,07,26,00,33,12.90
2005,07,26,00,34,12.90
2005,07,26,00,35,12.90
2005,07,26,00,36,12.90
2005,07,26,00,37,12.90
2005,07,26,00,38,12.90
2005,07,26,00,39,12.90
2005,07,26,00,40,12.90
2005,07,26,00,41,12.90
2005,07,26,00,42,12.90
2005,07,26,00,43,12.80
2005,07,26,00,44,12.80
2005,07,26,00,45,12.80
2005,07,26,00,46,12.80
2005,07,26,00,47,12.80
2005,07,26,00,48,12.80
2005,07,26,00,49,12.80
2005,07,26,00,50,12.80
2005,07,26,00,51,12.80
2005,07,26,00,52,12.70
2005,07,26,00,53,12.70
2005,07,26,00,54,12.70
2005,07,26,00,55,12.60
2005,07,26,00,56,12.60
2005,07,26,00,57,12.60
2005,07,26,00,58,12.60
2005,07,26,00,59,12.60
2005,07,26,01,00,12.50
2005,07,26,01,01,12.50
2005,07,26,01,02,12.50
2005,07,26,01,03,12.40
2005,07,26,01,04,12.40
2005,07,26,01,05,12.40
2005,07,26,01,06,12.40
2005,07,26,01,07,12.30
2005,07,26,01,08,12.30
2005,07,26,01,09,12.30
2005,07,26,01,10,12.30
2005,07,26,01,11,12.30
2005,07,26,01,12,12.30
2005,07,26,01,13,12.30
2005,07,26,01,14,12.30
2005,07,26,01,15,12.30
2005,07,26,01,16,12.30
2005,07,26,01,17,12.20
2005,07,26,01,18,12.20
2005,07,26,01,19,12.20
2005,07,26,01,20,12.20
2005,07,26,01,21,12.20
2005,07,26,01,22,12.20
2005,07,26,01,23,12.20
2005,07,26,01,24,12.20
2005,07,26,01,25,12.20
2005,07,26,01,26,12.20
2005,07,26,01,27,12.10
2005,07,26,01,28,12.10
2005,07,26,01,29,12.10
2005,07,26,01,30,12.10
2005,07,26,01,31,12.10
2005,07,26,01,32,12.10
2005,07,26,01,33,12.10
2005,07,26,01,34,12.10
2005,07,26,01,35,12.10
2005,07,26,01,36,12.10
2005,07,26,01,37,12.10
2005,07,26,01,38,12.10
2005,07,26,01,39,12.10
2005,07,26,01,40,12.10
2005,07,26,01,41,12.10
2005,07,26,01,42,12.00
2005,07,26,01,43,12.00
2005,07,26,01,44,12.00
2005,07,26,01,45,12.00
2005,07,26,01,46,12.00
2005,07,26,01,47,12.00
2005,07,26,01,48,12.00
2005,07,26,01,49,12.00
2005,07,26,01,50,12.00
2005,07,26,01,51,12.00
2005,07,26,01,52,12.00
2005,07,26,01,53,11.90
2005,07,26,01,54,11.90
2005,07,26,01,55,11.90
2005,07,26,01,56,11.90
2005,07,26,01,57,11.90
2005,07,26,01,58,11.90
2005,07,26,01,59,11.90
2005,07,26,02,00,11.90
2005,07,26,02,01,11.90
2005,07,26,02,02,11.90
2005,07,26,02,03,11.90
2005,07,26,02,04,11.90
2005,07,26,02,05,11.90
2005,07,26,02,06,11.90
2005,07,26,02,07,11.90
2005,07,26,02,08,11.90
2005,07,26,02,09,11.90
2005,07,26,02,10,11.90
2005,07,26,02,11,11.90
2005,07,26,02,12,11.90
2005,07,26,02,13,11.90
2005,07,26,02,14,11.90
2005,07,26,02,15,11.90
2005,07,26,02,16,11.90
2005,07,26,02,17,11.90
2005,07,26,02,18,11.90
2005,07,26,02,19,11.90
2005,07,26,02,20,11.90
2005,07,26,02,21,11.90
2005,07,26,02,22,11.90
2005,07,26,02,23,11.90
2005,07,26,02,24,11.90
2005,07,26,02,25,12.00
2005,07,26,02,26,12.00
2005,07,26,02,27,12.00
2005,07,26,02,28,12.00
2005,07,26,02,29,12.00
2005,07,26,02,30,12.00
2005,07,26,02,31,12.00
2005,07,26,02,32,12.00
2005,07,26,02,33,12.00
2005,07,26,02,34,12.00
2005,07,26,02,35,12.00
2005,07,26,02,36,12.00
2005,07,26,02,37,12.00
2005,07,26,02,38,12.00
2005,07,26,02,39,12.00
2005,07,26,02,40,11.90
2005,07,26,02,41,11.90
2005,07,26,02,42,11.90
2005,07,26,02,43,11.90
2005,07,26,02,44,11.90
2005,07,26,02,45,11.90
2005,07,26,02,46,11.80
2005,07,26,02,47,11.80
2005,07,26,02,48,11.80
2005,07,26,02,49,11.80
2005,07,26,02,50,11.80
2005,07,26,02,51,11.80
2005,07,26,02,52,11.70
2005,07,26,02,53,11.70
2005,07,26,02,54,11.70
2005,07,26,02,55,11.60
2005,07,26,02,56,11.60
2005,07,26,02,57,11.60
2005,07,26,02,58,11.60
2005,07,26,02,59,11.60
2005,07,26,03,00,11.60
2005,07,26,03,01,11.50
2005,07,26,03,02,11.40
2005,07,26,03,03,11.40
2005,07,26,03,04,11.40
2005,07,26,03,05,11.40
2005,07,26,03,06,11.40
2005,07,26,03,07,11.40
2005,07,26,03,08,11.40
2005,07,26,03,09,11.40
2005,07,26,03,10,11.30
2005,07,26,03,11,11.30
2005,07,26,03,12,11.30
2005,07,26,03,13,11.30
2005,07,26,03,14,11.30
2005,07,26,03,15,11.30
2005,07,26,03,16,11.30
2005,07,26,03,17,11.30
2005,07,26,03,18,11.20
2005,07,26,03,19,11.20
2005,07,26,03,20,11.20
2005,07,26,03,21,11.20
2005,07,26,03,22,11.20
2005,07,26,03,23,11.10
2005,07,26,03,24,11.10
2005,07,26,03,25,11.10
2005,07,26,03,26,11.10
2005,07,26,03,27,11.10
2005,07,26,03,28,11.10
2005,07,26,03,29,11.10
2005,07,26,03,30,11.10
2005,07,26,03,31,11.10
2005,07,26,03,32,11.00
2005,07,26,03,33,10.90
2005,07,26,03,34,10.90
2005,07,26,03,35,10.90
2005,07,26,03,36,10.90
2005,07,26,03,37,10.90
2005,07,26,03,38,10.90
2005,07,26,03,39,10.90
2005,07,26,03,40,10.90
2005,07,26,03,41,10.90
2005,07,26,03,42,10.90
2005,07,26,03,43,10.90
2005,07,26,03,44,10.90
2005,07,26,03,45,10.80
2005,07,26,03,46,10.80
2005,07,26,03,47,10.80
2005,07,26,03,48,10.80
2005,07,26,03,49,10.80
2005,07,26,03,50,10.80
2005,07,26,03,51,10.80
2005,07,26,03,52,10.80
2005,07,26,03,53,10.80
2005,07,26,03,54,10.80
2005,07,26,03,55,10.80
2005,07,26,03,56,10.80
2005,07,26,03,57,10.80
2005,07,26,03,58,10.80
2005,07,26,03,59,10.80
2005,07,26,04,00,10.80
2005,07,26,04,01,10.80
2005,07,26,04,02,10.80
2005,07,26,04,03,10.70
2005,07,26,04,04,10.70
2005,07,26,04,05,10.70
2005,07,26,04,06,10.70
2005,07,26,04,07,10.70
2005,07,26,04,08,10.70
2005,07,26,04,09,10.70
2005,07,26,04,10,10.70
2005,07,26,04,11,10.70
2005,07,26,04,12,10.60
2005,07,26,04,13,10.60
2005,07,26,04,14,10.60
2005,07,26,04,15,10.60
2005,07,26,04,16,10.60
2005,07,26,04,17,10.60
2005,07,26,04,18,10.60
2005,07,26,04,19,10.60
2005,07,26,04,20,10.60
2005,07,26,04,21,10.60
2005,07,26,04,22,10.60
2005,07,26,04,23,10.60
2005,07,26,04,24,10.60
2005,07,26,04,25,10.60
2005,07,26,04,26,10.60
2005,07,26,04,27,10.60
2005,07,26,04,28,10.40
2005,07,26,04,29,10.40
2005,07,26,04,30,10.40
2005,07,26,04,31,10.40
2005,07,26,04,32,10.40
2005,07,26,04,33,10.50
2005,07,26,04,34,10.60
2005,07,26,04,35,10.60
2005,07,26,04,36,10.60
2005,07,26,04,37,10.60
2005,07,26,04,38,10.60
2005,07,26,04,39,10.60
2005,07,26,04,40,10.60
2005,07,26,04,41,10.60
2005,07,26,04,42,10.60
2005,07,26,04,43,10.60
2005,07,26,04,44,10.60
2005,07,26,04,45,10.60
2005,07,26,04,46,10.60
2005,07,26,04,47,10.60
2005,07,26,04,48,10.50
2005,07,26,04,49,10.40
2005,07,26,04,50,10.40
2005,07,26,04,51,10.40
2005,07,26,04,52,10.40
2005,07,26,04,53,10.40
2005,07,26,04,54,10.40
2005,07,26,04,55,10.40
2005,07,26,04,56,10.40
2005,07,26,04,57,10.40
2005,07,26,04,58,10.40
2005,07,26,04,59,10.40
2005,07,26,05,00,10.40
2005,07,26,05,01,10.40
2005,07,26,05,02,10.30
2005,07,26,05,03,10.30
2005,07,26,05,04,10.30
2005,07,26,05,05,10.30
2005,07,26,05,06,10.30
2005,07,26,05,07,10.30
2005,07,26,05,08,10.30
2005,07,26,05,09,10.30
2005,07,26,05,10,10.30
2005,07,26,05,11,10.30
2005,07,26,05,12,10.30
2005,07,26,05,13,10.30
2005,07,26,05,14,10.30
2005,07,26,05,15,10.30
2005,07,26,05,16,10.30
2005,07,26,05,17,10.30
2005,07,26,05,18,10.30
2005,07,26,05,19,10.30
2005,07,26,05,20,10.30
2005,07,26,05,21,10.30
2005,07,26,05,22,10.30
2005,07,26,05,23,10.30
2005,07,26,05,24,10.40
2005,07,26,05,25,10.40
2005,07,26,05,26,10.40
2005,07,26,05,27,10.40
2005,07,26,05,28,10.40
2005,07,26,05,29,10.40
2005,07,26,05,30,10.40
2005,07,26,05,31,10.40
2005,07,26,05,32,10.40
2005,07,26,05,33,10.40
2005,07,26,05,34,10.40
2005,07,26,05,35,10.40
2005,07,26,05,36,10.40
2005,07,26,05,37,10.40
2005,07,26,05,38,10.40
2005,07,26,05,39,10.40
2005,07,26,05,40,10.40
2005,07,26,05,41,10.40
2005,07,26,05,42,10.40
2005,07,26,05,43,10.40
2005,07,26,05,44,10.40
2005,07,26,05,45,10.40
2005,07,26,05,46,10.40
2005,07,26,05,47,10.40
2005,07,26,05,48,10.40
2005,07,26,05,49,10.40
2005,07,26,05,50,10.40
2005,07,26,05,51,10.40
2005,07,26,05,52,10.40
2005,07,26,05,53,10.40
2005,07,26,05,54,10.40
2005,07,26,05,55,10.40
2005,07,26,05,56,10.40
2005,07,26,05,57,10.40
2005,07,26,05,58,10.40
2005,07,26,05,59,10.40
2005,07,26,06,00,10.40
2005,07,26,06,01,10.50
2005,07,26,06,02,10.60
2005,07,26,06,03,10.60
2005,07,26,06,04,10.60
2005,07,26,06,05,10.60
2005,07,26,06,06,10.60
2005,07,26,06,07,10.60
2005,07,26,06,08,10.60
2005,07,26,06,09,10.70
2005,07,26,06,10,10.70
2005,07,26,06,11,10.80
2005,07,26,06,12,10.80
2005,07,26,06,13,10.80
2005,07,26,06,14,10.90
2005,07,26,06,15,10.90
2005,07,26,06,16,10.90
2005,07,26,06,17,10.90
2005,07,26,06,18,10.90
2005,07,26,06,19,10.90
2005,07,26,06,20,10.90
2005,07,26,06,21,10.90
2005,07,26,06,22,11.00
2005,07,26,06,23,11.10
2005,07,26,06,24,11.10
2005,07,26,06,25,11.10
2005,07,26,06,26,11.20
2005,07,26,06,27,11.20
2005,07,26,06,28,11.30
2005,07,26,06,29,11.40
2005,07,26,06,30,11.40
2005,07,26,06,31,11.40
2005,07,26,06,32,11.40
2005,07,26,06,33,11.60
2005,07,26,06,34,11.60
2005,07,26,06,35,11.60
2005,07,26,06,36,11.70
2005,07,26,06,37,11.80
2005,07,26,06,38,11.80
2005,07,26,06,39,11.80
2005,07,26,06,40,11.80
2005,07,26,06,41,11.90
2005,07,26,06,42,11.90
2005,07,26,06,43,12.00
2005,07,26,06,44,12.00
2005,07,26,06,45,12.00
2005,07,26,06,46,12.10
2005,07,26,06,47,12.10
2005,07,26,06,48,12.20
2005,07,26,06,49,12.30
2005,07,26,06,50,12.30
2005,07,26,06,51,12.30
2005,07,26,06,52,12.40
2005,07,26,06,53,12.40
2005,07,26,06,54,12.50
2005,07,26,06,55,12.50
2005,07,26,06,56,12.60
2005,07,26,06,57,12.70
2005,07,26,06,58,12.80
2005,07,26,06,59,12.90
2005,07,26,07,00,13.00
2005,07,26,07,01,13.10
2005,07,26,07,02,13.20
2005,07,26,07,03,13.30
2005,07,26,07,04,13.30
2005,07,26,07,05,13.40
2005,07,26,07,06,13.60
2005,07,26,07,07,13.70
2005,07,26,07,08,13.90
2005,07,26,07,09,14.10
2005,07,26,07,10,14.20
2005,07,26,07,11,14.40
2005,07,26,07,12,14.60
2005,07,26,07,13,14.70
2005,07,26,07,14,14.90
2005,07,26,07,15,15.00
2005,07,26,07,16,15.20
2005,07,26,07,17,15.30
2005,07,26,07,18,15.50
2005,07,26,07,19,15.60
2005,07,26,07,20,15.70
2005,07,26,07,21,15.90
2005,07,26,07,22,16.10
2005,07,26,07,23,16.30
2005,07,26,07,24,16.40
2005,07,26,07,25,16.50
2005,07,26,07,26,16.70
2005,07,26,07,27,16.80
2005,07,26,07,28,16.90
2005,07,26,07,29,17.00
2005,07,26,07,30,17.10
2005,07,26,07,31,17.20
2005,07,26,07,32,17.30
2005,07,26,07,33,17.30
2005,07,26,07,34,17.40
2005,07,26,07,35,17.40
2005,07,26,07,36,17.50
2005,07,26,07,37,17.50
2005,07,26,07,38,17.60
2005,07,26,07,39,17.60
2005,07,26,07,40,17.70
2005,07,26,07,41,17.70
2005,07,26,07,42,17.80
2005,07,26,07,43,17.80
2005,07,26,07,44,17.90
2005,07,26,07,45,17.90
2005,07,26,07,46,17.90
2005,07,26,07,47,17.90
2005,07,26,07,48,18.00
2005,07,26,07,49,18.10
2005,07,26,07,50,18.20
2005,07,26,07,51,18.20
2005,07,26,07,52,18.20
2005,07,26,07,53,18.20
2005,07,26,07,54,18.30
2005,07,26,07,55,18.40
2005,07,26,07,56,18.50
2005,07,26,07,57,18.60
2005,07,26,07,58,18.70
2005,07,26,07,59,18.70
2005,07,26,08,00,18.80
2005,07,26,08,01,18.90
2005,07,26,08,02,18.90
2005,07,26,08,03,19.00
2005,07,26,08,04,19.10
2005,07,26,08,05,19.10
2005,07,26,08,06,19.10
2005,07,26,08,07,19.10
2005,07,26,08,08,19.10
2005,07,26,08,09,19.10
2005,07,26,08,10,19.10
2005,07,26,08,11,19.10
2005,07,26,08,12,19.10
2005,07,26,08,13,19.00
2005,07,26,08,14,18.70
2005,07,26,08,15,18.40
2005,07,26,08,16,18.20
2005,07,26,08,17,18.10
2005,07,26,08,18,18.10
2005,07,26,08,19,18.00
2005,07,26,08,20,17.90
2005,07,26,08,21,17.90
2005,07,26,08,22,17.90
2005,07,26,08,23,18.00
2005,07,26,08,24,18.10
2005,07,26,08,25,18.10
2005,07,26,08,26,18.10
2005,07,26,08,27,18.00
2005,07,26,08,28,17.90
2005,07,26,08,29,17.70
2005,07,26,08,30,17.40
2005,07,26,08,31,17.30
2005,07,26,08,32,17.10
2005,07,26,08,33,17.00
2005,07,26,08,34,16.80
2005,07,26,08,35,16.60
2005,07,26,08,36,16.40
2005,07,26,08,37,16.40
2005,07,26,08,38,16.40
2005,07,26,08,39,16.40
2005,07,26,08,40,16.30
2005,07,26,08,41,16.20
2005,07,26,08,42,16.20
2005,07,26,08,43,16.20
2005,07,26,08,44,16.20
2005,07,26,08,45,16.20
2005,07,26,08,46,16.20
2005,07,26,08,47,16.30
2005,07,26,08,48,16.40
2005,07,26,08,49,16.50
2005,07,26,08,50,16.60
2005,07,26,08,51,16.60
2005,07,26,08,52,16.50
2005,07,26,08,53,16.40
2005,07,26,08,54,16.40
2005,07,26,08,55,16.40
2005,07,26,08,56,16.40
2005,07,26,08,57,16.40
2005,07,26,08,58,16.40
2005,07,26,08,59,16.30
2005,07,26,09,00,16.10
2005,07,26,09,01,15.80
2005,07,26,09,02,15.60
2005,07,26,09,03,15.60
2005,07,26,09,04,15.50
2005,07,26,09,05,15.50
2005,07,26,09,06,15.40
2005,07,26,09,07,15.40
2005,07,26,09,08,15.40
2005,07,26,09,09,15.30
2005,07,26,09,10,15.20
2005,07,26,09,11,15.10
2005,07,26,09,12,15.10
2005,07,26,09,13,15.10
2005,07,26,09,14,15.20
2005,07,26,09,15,15.40
2005,07,26,09,16,15.60
2005,07,26,09,17,15.70
2005,07,26,09,18,15.80
2005,07,26,09,19,15.90
2005,07,26,09,20,15.90
2005,07,26,09,21,15.90
2005,07,26,09,22,15.90
2005,07,26,09,23,15.90
2005,07,26,09,24,15.90
2005,07,26,09,25,16.00
2005,07,26,09,26,16.10
2005,07,26,09,27,16.20
2005,07,26,09,28,16.30
2005,07,26,09,29,16.40
2005,07,26,09,30,16.40
2005,07,26,09,31,16.40
2005,07,26,09,32,16.40
2005,07,26,09,33,16.40
2005,07,26,09,34,16.40
2005,07,26,09,35,16.40
2005,07,26,09,36,16.40
2005,07,26,09,37,16.40
2005,07,26,09,38,16.40
2005,07,26,09,39,16.40
2005,07,26,09,40,16.20
2005,07,26,09,41,16.10
2005,07,26,09,42,16.00
2005,07,26,09,43,15.90
2005,07,26,09,44,16.10
2005,07,26,09,45,16.10
2005,07,26,09,46,16.10
2005,07,26,09,47,16.10
2005,07,26,09,48,16.10
2005,07,26,09,49,16.00
2005,07,26,09,50,15.90
2005,07,26,09,51,15.80
2005,07,26,09,52,15.70
2005,07,26,09,53,15.70
2005,07,26,09,54,15.70
2005,07,26,09,55,15.60
2005,07,26,09,56,15.60
2005,07,26,09,57,15.60
2005,07,26,09,58,15.50
2005,07,26,09,59,15.50
2005,07,26,10,00,15.50
2005,07,26,10,01,15.60
2005,07,26,10,02,15.50
2005,07,26,10,03,15.50
2005,07,26,10,04,15.50
2005,07,26,10,05,15.50
2005,07,26,10,06,15.50
2005,07,26,10,07,15.50
2005,07,26,10,08,15.50
2005,07,26,10,09,15.40
2005,07,26,10,10,15.40
2005,07,26,10,11,15.50
2005,07,26,10,12,15.60
2005,07,26,10,13,15.70
2005,07,26,10,14,15.60
2005,07,26,10,15,15.60
2005,07,26,10,16,15.50
2005,07,26,10,17,15.40
2005,07,26,10,18,15.30
2005,07,26,10,19,15.20
2005,07,26,10,20,15.10
2005,07,26,10,21,15.00
2005,07,26,10,22,15.00
2005,07,26,10,23,15.00
2005,07,26,10,24,15.00
2005,07,26,10,25,15.00
2005,07,26,10,26,15.20
2005,07,26,10,27,15.30
2005,07,26,10,28,15.30
2005,07,26,10,29,15.40
2005,07,26,10,30,15.50
2005,07,26,10,31,15.50
2005,07,26,10,32,15.60
2005,07,26,10,33,15.60
2005,07,26,10,34,15.50
2005,07,26,10,35,15.50
2005,07,26,10,36,15.50
2005,07,26,10,37,15.50
2005,07,26,10,38,15.50
2005,07,26,10,39,15.50
2005,07,26,10,40,15.60
2005,07,26,10,41,15.70
2005,07,26,10,42,15.80
2005,07,26,10,43,15.90
2005,07,26,10,44,16.00
2005,07,26,10,45,16.20
2005,07,26,10,46,16.30
2005,07,26,10,47,16.30
2005,07,26,10,48,16.60
2005,07,26,10,49,16.50
2005,07,26,10,50,16.40
2005,07,26,10,51,16.40
2005,07,26,10,52,16.40
2005,07,26,10,53,16.60
2005,07,26,10,54,16.70
2005,07,26,10,55,16.90
2005,07,26,10,56,17.00
2005,07,26,10,57,17.20
2005,07,26,10,58,17.30
2005,07,26,10,59,17.50
2005,07,26,11,00,17.70
2005,07,26,11,01,17.80
2005,07,26,11,02,17.70
2005,07,26,11,03,17.70
2005,07,26,11,04,17.40
2005,07,26,11,05,17.30
2005,07,26,11,06,17.20
2005,07,26,11,07,17.10
2005,07,26,11,08,17.00
2005,07,26,11,09,16.90
2005,07,26,11,10,16.90
2005,07,26,11,11,16.90
2005,07,26,11,12,17.00
2005,07,26,11,13,17.20
2005,07,26,11,14,17.30
2005,07,26,11,15,17.40
2005,07,26,11,16,17.50
2005,07,26,11,17,17.60
2005,07,26,11,18,17.70
2005,07,26,11,19,17.80
2005,07,26,11,20,17.90
2005,07,26,11,21,18.20
2005,07,26,11,22,18.30
2005,07,26,11,23,18.40
2005,07,26,11,24,18.60
2005,07,26,11,25,18.80
2005,07,26,11,26,19.10
2005,07,26,11,27,19.40
2005,07,26,11,28,19.70
2005,07,26,11,29,19.90
2005,07,26,11,30,20.10
2005,07,26,11,31,20.30
2005,07,26,11,32,20.50
2005,07,26,11,33,20.60
2005,07,26,11,34,20.80
2005,07,26,11,35,21.00
2005,07,26,11,36,21.10
2005,07,26,11,37,21.20
2005,07,26,11,38,21.20
2005,07,26,11,39,21.10
2005,07,26,11,40,20.70
2005,07,26,11,41,20.10
2005,07,26,11,42,19.30
2005,07,26,11,43,18.80
2005,07,26,11,44,18.40
2005,07,26,11,45,18.20
2005,07,26,11,46,17.80
2005,07,26,11,47,17.60
2005,07,26,11,48,17.60
2005,07,26,11,49,17.50
2005,07,26,11,50,17.40
2005,07,26,11,51,17.20
2005,07,26,11,52,17.10
2005,07,26,11,53,17.00
2005,07,26,11,54,17.00
2005,07,26,11,55,17.10
2005,07,26,11,56,17.40
2005,07,26,11,57,17.60
2005,07,26,11,58,17.50
2005,07,26,11,59,17.30
2005,07,26,12,00,17.00
2005,07,26,12,01,16.90
2005,07,26,12,02,16.90
2005,07,26,12,03,17.00
2005,07,26,12,04,16.90
2005,07,26,12,05,17.00
2005,07,26,12,06,17.10
2005,07,26,12,07,17.20
2005,07,26,12,08,17.30
2005,07,26,12,09,17.40
2005,07,26,12,10,17.40
2005,07,26,12,11,17.60
2005,07,26,12,12,17.70
2005,07,26,12,13,17.80
2005,07,26,12,14,17.80
2005,07,26,12,15,17.80
2005,07,26,12,16,18.00
2005,07,26,12,17,18.10
2005,07,26,12,18,18.20
2005,07,26,12,19,18.40
2005,07,26,12,20,18.60
2005,07,26,12,21,18.60
2005,07,26,12,22,18.50
2005,07,26,12,23,18.40
2005,07,26,12,24,18.30
2005,07,26,12,25,18.20
2005,07,26,12,26,18.20
2005,07,26,12,27,18.10
2005,07,26,12,28,18.00
2005,07,26,12,29,17.80
2005,07,26,12,30,18.00
2005,07,26,12,31,18.20
2005,07,26,12,32,18.30
2005,07,26,12,33,18.50
2005,07,26,12,34,18.70
2005,07,26,12,35,18.80
2005,07,26,12,36,18.80
2005,07,26,12,37,18.80
2005,07,26,12,38,18.80
2005,07,26,12,39,18.80
2005,07,26,12,40,18.90
2005,07,26,12,41,18.90
2005,07,26,12,42,18.90
2005,07,26,12,43,18.90
2005,07,26,12,44,19.00
2005,07,26,12,45,19.20
2005,07,26,12,46,19.30
2005,07,26,12,47,19.40
2005,07,26,12,48,19.50
2005,07,26,12,49,19.50
2005,07,26,12,50,19.80
2005,07,26,12,51,19.90
2005,07,26,12,52,19.80
2005,07,26,12,53,19.60
2005,07,26,12,54,19.50
2005,07,26,12,55,19.40
2005,07,26,12,56,19.10
2005,07,26,12,57,18.90
2005,07,26,12,58,18.80
2005,07,26,12,59,18.70
2005,07,26,13,00,18.70
2005,07,26,13,01,18.60
2005,07,26,13,02,18.50
2005,07,26,13,03,18.40
2005,07,26,13,04,18.40
2005,07,26,13,05,18.30
2005,07,26,13,06,18.40
2005,07,26,13,07,18.50
2005,07,26,13,08,18.50
2005,07,26,13,09,18.50
2005,07,26,13,10,18.50
2005,07,26,13,11,18.50
2005,07,26,13,12,18.70
2005,07,26,13,13,18.80
2005,07,26,13,14,18.90
2005,07,26,13,15,18.90
2005,07,26,13,16,18.90
2005,07,26,13,17,18.90
2005,07,26,13,18,19.10
2005,07,26,13,19,19.30
2005,07,26,13,20,19.50
2005,07,26,13,21,19.70
2005,07,26,13,22,19.90
2005,07,26,13,23,20.00
2005,07,26,13,24,20.10
2005,07,26,13,25,20.30
2005,07,26,13,26,20.40
2005,07,26,13,27,20.60
2005,07,26,13,28,20.70
2005,07,26,13,29,20.70
2005,07,26,13,30,20.70
2005,07,26,13,31,20.70
2005,07,26,13,32,20.70
2005,07,26,13,33,20.70
2005,07,26,13,34,20.70
2005,07,26,13,35,20.80
2005,07,26,13,36,20.90
2005,07,26,13,37,21.10
2005,07,26,13,38,21.40
2005,07,26,13,41,22.40
2005,07,26,13,42,22.60
2005,07,26,13,43,22.80
2005,07,26,13,44,23.00
2005,07,26,13,45,23.10
2005,07,26,13,46,23.30
2005,07,26,13,47,23.40
2005,07,26,13,48,23.50
2005,07,26,13,49,23.60
2005,07,26,13,50,23.80
2005,07,26,13,51,23.90
2005,07,26,13,52,24.00
2005,07,26,13,53,24.00
2005,07,26,13,54,23.90
2005,07,26,13,55,24.00
2005,07,26,13,56,24.10
2005,07,26,13,57,24.10
2005,07,26,13,58,24.10
2005,07,26,13,59,24.20
2005,07,26,14,00,24.20
2005,07,26,14,01,24.20
2005,07,26,14,02,24.10
2005,07,26,14,03,24.10
2005,07,26,14,04,24.10
2005,07,26,14,05,24.00
2005,07,26,14,06,23.80
2005,07,26,14,07,23.80
2005,07,26,14,08,23.80
2005,07,26,14,09,23.80
2005,07,26,14,10,23.40
2005,07,26,14,11,23.20
2005,07,26,14,12,23.00
2005,07,26,14,13,22.70
2005,07,26,14,14,22.50
2005,07,26,14,15,22.30
2005,07,26,14,16,22.10
2005,07,26,14,17,21.80
2005,07,26,14,18,21.60
2005,07,26,14,19,21.60
2005,07,26,14,20,21.70
2005,07,26,14,21,21.70
2005,07,26,14,22,21.70
2005,07,26,14,23,21.70
2005,07,26,14,24,21.60
2005,07,26,14,25,21.30
2005,07,26,14,26,21.30
2005,07,26,14,27,21.30
2005,07,26,14,28,21.10
2005,07,26,14,29,21.10
2005,07,26,14,30,21.10
2005,07,26,14,31,21.10
2005,07,26,14,32,21.10
2005,07,26,14,33,21.10
2005,07,26,14,34,21.00
2005,07,26,14,35,21.10
2005,07,26,14,36,21.30
2005,07,26,14,37,21.50
2005,07,26,14,38,21.60
2005,07,26,14,39,21.60
2005,07,26,14,40,21.40
2005,07,26,14,41,21.10
2005,07,26,14,42,20.90
2005,07,26,14,43,20.90
2005,07,26,14,44,21.10
2005,07,26,14,45,21.30
2005,07,26,14,46,21.40
2005,07,26,14,47,21.40
2005,07,26,14,48,21.50
2005,07,26,14,49,21.70
2005,07,26,14,50,21.90
2005,07,26,14,51,21.90
2005,07,26,14,52,21.70
2005,07,26,14,53,21.50
2005,07,26,14,54,21.50
2005,07,26,14,55,21.50
2005,07,26,14,56,21.60
2005,07,26,14,57,21.60
2005,07,26,14,58,21.60
2005,07,26,14,59,21.60
2005,07,26,15,00,21.60
2005,07,26,15,01,21.50
2005,07,26,15,02,21.30
2005,07,26,15,03,21.30
2005,07,26,15,04,21.30
2005,07,26,15,05,21.40
2005,07,26,15,06,21.30
2005,07,26,15,07,21.20
2005,07,26,15,08,21.10
2005,07,26,15,09,21.10
2005,07,26,15,10,21.20
2005,07,26,15,11,21.50
2005,07,26,15,12,21.70
2005,07,26,15,13,21.80
2005,07,26,15,14,21.70
2005,07,26,15,15,21.60
2005,07,26,15,16,21.60
2005,07,26,15,17,21.60
2005,07,26,15,18,21.60
2005,07,26,15,19,21.70
2005,07,26,15,20,21.90
2005,07,26,15,21,22.00
2005,07,26,15,22,22.00
2005,07,26,15,23,22.10
2005,07,26,15,24,22.20
2005,07,26,15,25,22.20
2005,07,26,15,26,21.90
2005,07,26,15,27,21.80
2005,07,26,15,28,21.80
2005,07,26,15,29,21.70
2005,07,26,15,30,21.70
2005,07,26,15,31,21.80
2005,07,26,15,32,21.80
2005,07,26,15,33,22.00
2005,07,26,15,34,22.10
2005,07,26,15,35,22.10
2005,07,26,15,36,22.00
2005,07,26,15,37,21.90
2005,07,26,15,38,21.90
2005,07,26,15,39,21.90
2005,07,26,15,40,22.00
2005,07,26,15,41,22.20
2005,07,26,15,42,22.30
2005,07,26,15,43,22.40
2005,07,26,15,44,22.50
2005,07,26,15,45,22.60
2005,07,26,15,46,22.50
2005,07,26,15,47,22.50
2005,07,26,15,48,22.60
2005,07,26,15,49,22.60
2005,07,26,15,50,22.60
2005,07,26,15,51,22.40
2005,07,26,15,52,22.40
2005,07,26,15,53,22.40
2005,07,26,15,54,22.40
2005,07,26,15,55,22.40
2005,07,26,15,56,22.60
2005,07,26,15,57,22.70
2005,07,26,15,58,22.60
2005,07,26,15,59,22.50
2005,07,26,16,00,22.40
2005,07,26,16,01,22.40
2005,07,26,16,02,22.40
2005,07,26,16,03,22.30
2005,07,26,16,04,22.20
2005,07,26,16,05,22.10
2005,07,26,16,06,22.10
2005,07,26,16,07,22.10
2005,07,26,16,08,22.00
2005,07,26,16,09,21.90
2005,07,26,16,10,21.90
2005,07,26,16,11,22.00
2005,07,26,16,12,22.00
2005,07,26,16,13,22.00
2005,07,26,16,14,22.00
2005,07,26,16,15,22.00
2005,07,26,16,16,22.00
2005,07,26,16,17,22.00
2005,07,26,16,18,22.00
2005,07,26,16,19,22.00
2005,07,26,16,20,21.90
2005,07,26,16,21,21.80
2005,07,26,16,22,21.90
2005,07,26,16,23,22.00
2005,07,26,16,24,22.10
2005,07,26,16,25,22.10
2005,07,26,16,26,22.10
2005,07,26,16,27,22.10
2005,07,26,16,28,22.10
2005,07,26,16,29,22.00
2005,07,26,16,30,22.00
2005,07,26,16,31,22.10
2005,07,26,16,32,22.10
2005,07,26,16,33,22.50
2005,07,26,16,34,22.60
2005,07,26,16,35,22.70
2005,07,26,16,36,22.80
2005,07,26,16,37,22.80
2005,07,26,16,38,22.80
2005,07,26,16,39,22.70
2005,07,26,16,40,22.80
2005,07,26,16,41,22.90
2005,07,26,16,42,22.90
2005,07,26,16,43,22.90
2005,07,26,16,44,22.90
2005,07,26,16,45,23.10
2005,07,26,16,46,23.20
2005,07,26,16,47,23.20
2005,07,26,16,48,23.20
2005,07,26,16,49,23.20
2005,07,26,16,50,23.10
2005,07,26,16,51,22.90
2005,07,26,16,52,22.90
2005,07,26,16,53,22.90
2005,07,26,16,54,22.90
2005,07,26,16,55,22.90
2005,07,26,16,56,22.90
2005,07,26,16,57,22.90
2005,07,26,16,58,23.00
2005,07,26,16,59,23.10
2005,07,26,17,00,23.20
2005,07,26,17,01,23.30
2005,07,26,17,02,23.30
2005,07,26,17,03,23.30
2005,07,26,17,04,23.40
2005,07,26,17,05,23.40
2005,07,26,17,06,23.30
2005,07,26,17,07,23.40
2005,07,26,17,08,23.40
2005,07,26,17,09,23.30
2005,07,26,17,10,23.20
2005,07,26,17,11,23.10
2005,07,26,17,12,23.00
2005,07,26,17,13,23.10
2005,07,26,17,14,23.10
2005,07,26,17,15,23.20
2005,07,26,17,16,23.30
2005,07,26,17,17,23.30
2005,07,26,17,18,23.40
2005,07,26,17,19,23.50
2005,07,26,17,20,23.60
2005,07,26,17,21,23.60